Home   Weather   Wilmington   Past weeks

Flag for USA Past Weather in Wilmington, Delaware, USA — Yesterday and Last 2 Weeks

Now
61 °F

Overcast.


Feels Like: 61 °F
Forecast: 60 / 66 °F
Wind: 18 mph from Northeast

Location: New Castle County Airport

Current Time: Sep 30, 2016 at 1:10:35 AM

Latest Report: Sep 29, 2016 at 11:51 PM


Visibility: 10 mi

Pressure: 30.24 "Hg

Humidity: 90%

Dew Point: 58 °F

Location of WilmingtonLocation

Past Weather in Wilmington — Graph

°F

Wilmington Temperature Yesterday

Maximum temperature yesterday: 67 °F (at 12:51 PM)
Minimum temperature yesterday: 61 °F (at 3:51 AM)
Average temperature yesterday: 63 °F

High & Low Weather Summary for the Past Weeks

 TemperatureHumidityPressure
High88 °F (Sep 18, 2:51 PM)97% (Sep 21, 1:51 AM)30.32 "Hg (Sep 21, 1:51 AM)
Low49 °F (Sep 25, 5:51 AM)30% (Sep 25, 3:51 PM)29.90 "Hg (Sep 27, 4:51 PM)
Average69 °F72%30.12 "Hg
* Reported Sep 14 11:51 PM — Sep 29 11:51 PM, Wilmington, Weather by CustomWeather, © 2016

Note: Actual official high and low records may vary slightly from our data, if they occured in-between our weather recording intervals... More about our weather records

Advertising

Wilmington Weather History for the Previous 24 Hours

Scroll right to see more
 ConditionsComfort  
Time TempWeatherWind HumidityBarometerVisibility
11:51 PM
Thu, Sep 29
61 °FOvercast.18 mph90%30.24 "Hg10 mi
10:51 PM61 °FRain. Fog.22 mph90%30.24 "Hg4 mi
9:51 PM61 °FRain. Mostly cloudy.18 mph90%30.25 "Hg7 mi
8:51 PM62 °FLight rain. Overcast.17 mph90%30.25 "Hg8 mi
7:51 PM62 °FLight rain. Mostly cloudy.23 mph90%30.24 "Hg7 mi
6:51 PM62 °FLight rain. Overcast.15 mph90%30.24 "Hg10 mi
5:51 PM63 °FLight rain. Overcast.29 mph87%30.20 "Hg9 mi
4:51 PM63 °FLight rain. Overcast.16 mph90%30.21 "Hg10 mi
3:51 PM64 °FLight rain. Overcast.17 mph87%30.24 "Hg10 mi
2:51 PM65 °FOvercast.20 mph85%30.22 "Hg10 mi
1:51 PM66 °FOvercast.25 mph81%30.23 "Hg10 mi
12:51 PM67 °FOvercast.15 mph81%30.26 "Hg10 mi
11:51 AM66 °FOvercast.18 mph84%30.24 "Hg10 mi
10:58 AM65 °FOvercast.20 mph91%30.24 "Hg10 mi
9:51 AM65 °FLow clouds.16 mph91%30.24 "Hg10 mi
8:51 AM65 °FOvercast.17 mph87%30.21 "Hg10 mi
7:51 AM64 °FRain. Fog.22 mph90%30.18 "Hg4 mi
6:51 AM63 °FLight rain. Low clouds.13 mph93%30.18 "Hg8 mi
5:51 AM62 °FRain. Low clouds.16 mph93%30.17 "Hg8 mi
4:51 AM62 °FRain. Mostly cloudy.17 mph90%30.16 "Hg7 mi
3:51 AM61 °FLight rain. Low clouds.13 mph93%30.17 "Hg9 mi
2:51 AM62 °FHeavy rain. Fog.16 mph90%30.17 "Hg5 mi
1:51 AM62 °FLight rain. Low clouds.18 mph90%30.16 "Hg10 mi
Weather by CustomWeather, © 2016

See weather overviewHow to use our weather pages